This demonstration page uses our WeatherBlox Daily Observations layout. Learn more.

Left ArrowRight Arrow

36.19886, -115.1175

Hourly Observations for August 18, 2016

Temp ( °F °C ) Dew Point ( °F °C ) Humidity (%) Winds ( mph kmh ) Pressure ( in mb ) Visibility ( mi km ) Precip ( " mm )
12:53 am 00:53 Clear 86 30 44 6.7 23 23 NW 7 11 29.83 1010 10 16.0934 0 0
1:53 am 01:53 Clear 86 30 49 9.4 28 28 ENE 8 13 29.83 1010 10 16.0934 0 0
2:53 am 02:53 Clear 87 30.6 48 8.9 26 26 E 10 17 29.84 1010 10 16.0934 0 0
3:53 am 03:53 Clear 86 30 48 8.9 27 27 E 8 13 29.85 1011 10 16.0934 0 0
4:53 am 04:53 Clear 84 28.9 48 8.9 29 29 Calm 29.86 1011 10 16.0934 0 0
5:53 am 05:53 Clear 84 28.9 48 8.9 29 29 Calm 29.87 1012 10 16.0934 0 0
6:53 am 06:53 Sunny 83 28.3 49 9.4 31 31 Calm 29.89 1012 10 16.0934 0 0
7:53 am 07:53 Sunny 86 30 49 9.4 28 28 E 7 11 29.9 1013 10 16.0934 0 0
8:53 am 08:53 Sunny 87 30.6 50 10 28 28 E 7 11 29.91 1013 10 16.0934 0 0
9:53 am 09:53 Sunny 90 32.2 50 10 25 25 SE 10 17 29.91 1013 10 16.0934 0 0
10:53 am 10:53 Sunny 93 33.9 49 9.4 22 22 SSE 6 9 29.9 1013 10 16.0934 0 0
11:53 am 11:53 Sunny 96 35.6 50 10 21 21 SSE 9 15 29.88 1012 10 16.0934 0 0
12:53 pm 12:53 Sunny 99 37.2 46 7.8 16 16 S 12 19 29.85 1011 10 16.0934 0 0
1:53 pm 13:53 Sunny 101 38.3 45 7.2 15 15 SSE 10 17 29.83 1010 10 16.0934 0 0
2:53 pm 14:53 Sunny 98 36.7 49 9.4 19 19 SSW 16 26 29.8 1009 10 16.0934 0 0
3:53 pm 15:53 Sunny 100 37.8 44 6.7 15 15 SSW 14 22 29.78 1009 10 16.0934 0 0
4:53 pm 16:53 Sunny 99 37.2 45 7.2 16 16 SSW 16 26 29.77 1008 10 16.0934 0 0
5:53 pm 17:53 Sunny 98 36.7 45 7.2 16 16 SSW 14 22 29.77 1008 10 16.0934 0 0
6:53 pm 18:53 Sunny 97 36.1 45 7.2 17 17 SSE 12 19 29.78 1009 10 16.0934 0 0
7:26 pm 19:26 Sunny 95 35 43 6 16 16 E 18 30 29.62 1003 10 16.0934 0 0
7:53 pm 19:53 Clear 94 34.4 42 5.6 17 17 E 12 19 29.81 1009 10 16.0934 0 0
8:53 pm 20:53 Clear 93 33.9 43 6.1 18 18 SE 9 15 29.83 1010 10 16.0934 0 0
9:53 pm 21:53 Clear 90 32.2 49 9.4 24 24 ESE 18 30 29.87 1012 10 16.0934 0 0
10:53 pm 22:53 Cloudy with Rain 87 30.6 53 11.7 31 31 E 15 24 29.9 1012 8 12.87472 0 0.0254
11:53 pm 23:53 Clear 85 29.4 54 12.2 35 35 NNE 6 9 29.89 1012 10 16.0934 0 0.0254

Powered by AerisWeather